Home   Weather   Pinneberg   Past weeks

Flag for Germany Past Weather in Pinneberg, Schleswig-Holstein, Germany — Yesterday and Last 2 Weeks

Now
34 °F

Fog.


Feels Like: 30 °F
Forecast: 31 / 36 °F
Wind: 5 mph from Southwest

Location: Hamburg-Fuhlsbuettel

Current Time: Jan 23, 2017 at 8:01:53 pm

Latest Report: Jan 23, 2017 at 7:20 pm


Visibility: 3 mi

Pressure: 30.27 "Hg

Humidity: 87%

Dew Point: 30 °F

Location of PinnebergLocation

Past Weather in Pinneberg — Graph

°F

Pinneberg Temperature Yesterday

Maximum temperature yesterday: 37 °F (at 12:20 am)
Minimum temperature yesterday: 30 °F (at 7:20 pm)
Average temperature yesterday: 33 °F

High & Low Weather Summary for the Past Weeks

 TemperatureHumidityPressure
High45 °F (Jan 11, 4:20 pm)100% (Jan 8, 6:20 pm)30.72 "Hg (Jan 8, 6:20 pm)
Low18 °F (Jan 16, 4:50 am)65% (Jan 19, 1:50 pm)29.06 "Hg (Jan 13, 4:50 am)
Average33 °F90%30.13 "Hg
* Reported Jan 8 6:20 pm — Jan 23 6:50 pm, Pinneberg, Weather by CustomWeather, © 2017

Note: Actual official high and low records may vary slightly from our data, if they occured in-between our weather recording intervals... More about our weather records

Advertising

Pinneberg Weather History for the Previous 24 Hours

Scroll right to see more
 ConditionsComfort  
Time TempWeatherWind HumidityBarometerVisibility
6:50 pm
Mon, Jan 23
34 °FFog.6 mph93%30.27 "Hg2 mi
6:20 pm34 °FFog.5 mph93%30.27 "Hg2 mi
5:50 pm34 °FFog.5 mph93%30.27 "Hg2 mi
5:20 pm34 °FFog.5 mph93%30.27 "Hg2 mi
4:50 pm34 °FFog.6 mph93%30.27 "Hg2 mi
4:20 pm34 °FFog.3 mph87%30.27 "Hg2 mi
3:50 pm34 °FFog.6 mph87%30.27 "Hg3 mi
3:20 pm34 °FFog.7 mph87%30.27 "Hg3 mi
2:50 pm34 °FFog.7 mph87%30.27 "Hg3 mi
2:20 pm34 °FFog.5 mph87%30.27 "Hg3 mi
1:50 pm32 °FIce fog.7 mph93%30.27 "Hg3 mi
1:20 pm32 °FIce fog.8 mph93%30.27 "Hg3 mi
12:50 pm32 °FIce fog.7 mph93%30.27 "Hg3 mi
12:20 pm34 °FFog.3 mph87%30.27 "Hg3 mi
11:50 am32 °FIce fog.3 mph93%30.27 "Hg3 mi
11:20 am32 °FIce fog.3 mph93%30.27 "Hg3 mi
10:50 am32 °FIce fog.No wind87%30.27 "Hg3 mi
10:20 am30 °FIce fog.No wind100%30.27 "Hg2 mi
9:50 am30 °FIce fog.1 mph93%30.27 "Hg2 mi
9:20 am30 °FIce fog.1 mph93%30.27 "Hg2 mi
8:50 am30 °FSnow flurries. Ice fog.6 mph93%30.27 "Hg2 mi
8:20 am30 °FSnow flurries. Ice fog.9 mph93%30.27 "Hg2 mi
7:50 am30 °FSnow flurries. Ice fog.8 mph93%30.27 "Hg2 mi
7:20 am30 °FLight freezing rain. Ice fog.8 mph93%30.27 "Hg2 mi
6:50 am30 °FLight freezing rain. Ice fog.8 mph93%30.27 "Hg2 mi
6:20 am30 °FLight freezing rain. Ice fog.5 mph93%30.27 "Hg2 mi
5:50 am28 °FIce fog.7 mph100%30.27 "Hg2 mi
5:20 am30 °FIce fog.6 mph93%30.27 "Hg2 mi
4:50 am30 °FIce fog.3 mph93%30.27 "Hg2 mi
4:20 am30 °FIce fog.6 mph93%30.27 "Hg3 mi
3:50 am30 °FIce fog.3 mph93%30.27 "Hg3 mi
3:20 am30 °FIce fog.6 mph93%30.27 "Hg3 mi
2:50 am30 °FIce fog.5 mph93%30.27 "Hg3 mi
2:20 am30 °FIce fog.6 mph93%30.27 "Hg3 mi
1:50 am30 °FIce fog.5 mph93%30.27 "Hg3 mi
1:20 am30 °FIce fog.2 mph93%30.30 "Hg3 mi
12:50 am30 °FIce fog.3 mph93%30.30 "Hg3 mi
12:20 am30 °FLow clouds.3 mph93%30.30 "Hg4 mi
11:50 pm
Sun, Jan 22
30 °FLow clouds.2 mph93%30.30 "Hg4 mi
11:20 pm30 °FLow clouds.5 mph93%30.30 "Hg4 mi
10:50 pm30 °FLow clouds.5 mph93%30.30 "Hg4 mi
10:20 pm30 °FLow clouds.3 mph93%30.30 "Hg4 mi
9:50 pm30 °FLow clouds.2 mph93%30.30 "Hg4 mi
9:20 pm30 °FLow clouds.2 mph93%30.30 "Hg4 mi
8:50 pm30 °FLow clouds.1 mph93%30.30 "Hg4 mi
8:20 pm30 °FPassing clouds.6 mph93%30.30 "Hg4 mi
Weather by CustomWeather, © 2017

See weather overviewHow to use our weather pages